Location: Newark
(15.4608°S, 41.1635°W)
Time: 00:47:59
(UTC+00:00)

N. Korean satellite - Pass Details

Date: 29 June 2021
Orbit: 451 x 498 km, 97.2° (Epoch: 30 July)

Event Time Altitude Azimuth Distance (km) Brightness Sun altitude
Rises 06:53:29 0° 38° (NE) 2,571 11.0 -32.0°
Reaches altitude 10° 06:55:57 10° 55° (NE) 1,692 10.1 -31.4°
Enters shadow 06:58:12 20° 93° (E) 1,206 9.2 -30.9°
